Torna al catalogo

COSMOS 1823 DEB

AttivoLEO
NORAD 39817·DEBRIS·🇷🇺 Russia

Lanciato Feb 20, 1987 da Plesetsk Cosmodrome

Loading…

Prossimi Passaggi (prossime 24 ore)

TLE

In scadenzaSource: Space-Track

Epoca: Sep 8, 2026, 08:14 UTC

1 39817U 87020ER  26251.34308080  .00000154  00000-0  10926-2 0  9997
2 39817  73.7156 123.4016 0021395  50.5655  69.5590 12.52173743 15681

Traccia COSMOS 1823 DEB in tempo reale con AllMySat

Download on the App Store